Regional Weather Roundup
Issued by NWS

Home | Current Version | Previous Version | Text Only | Print | Product List | Glossary Off
Versions: 1 2 3 4 5 6 7 8 9 10 11 12 13 14 15 16 17 18 19 20 21 22 23 24 25 26 27 28 29 30 31 32 33 34 35 36 37 38 39 40 41 42 43 44 45 46 47 48 49 50

000
ASUS43 KMKX 021711
RWRWI

WISCONSIN REGIONAL WEATHER ROUNDUP
NATIONAL WEATHER SERVICE MILWAUKEE/SULLIVAN WI
1200 PM CDT WED SEP 02 2015

NOTE: "FAIR" INDICATES FEW OR NO CLOUDS BELOW 12,000 FEET WITH NO
SIGNIFICANT WEATHER AND/OR OBSTRUCTIONS TO VISIBILITY.

WIZ001-002-006>008-014>016-023>028-021800-
NORTHWEST WISCONSIN

CITY           SKY/WX    TMP DP  RH WIND       PRES   REMARKS
SUPERIOR ARPT  CLOUDY    69  66  90 SE8       29.99S
ASHLAND        LGT RAIN  67  67 100 NE8       30.02R
HAYWARD        LGT RAIN  69  67  93 CALM      30.02R
SIREN          CLOUDY    69  67  90 E8        29.98S
CUMBERLAND     TSTM      64  64 100 E9        29.98F
RICE LAKE      TSTM      67  65  92 E8        30.00F
CHETEK         LGT RAIN N/A N/A N/A E8        29.99F
LADYSMITH      RAIN      68  65  90 E7        30.03S
EAU CLAIRE     CLOUDY    70  67  90 E7        29.95F
MENOMONIE      CLOUDY    70  69  95 E6        29.95F
NEW RICHMOND   CLOUDY    66  65  97 E5        29.95F
OSCEOLA        RAIN      67  67 100 NE5       29.97F
$$

WIZ003>005-009-010-017-018-021800-
NORTH CENTRAL WISCONSIN

CITY           SKY/WX    TMP DP  RH WIND       PRES   REMARKS
MANITOWISH WTR DRIZZLE   67  67 100 SW9       30.06R
ARBOR VITAE    RAIN      67  65  93 CALM      30.06R
WOODRUFF       RAIN      67  65  93 CALM      30.06R
RHINELANDER    LGT RAIN  69  64  84 N3        30.06R
EAGLE RIVER    RAIN      67  65  93 N3        30.04S
LAND O LAKES   LGT RAIN  67  64  91 NE3       30.05F
PHILLIPS       LGT RAIN  67  65  94 CALM      30.04R
TOMAHAWK       LGT RAIN  69  66  89 N3        30.03F
MEDFORD        LGT RAIN  70  68  95 N5        30.02S
MERRILL        PTSUNNY   75  71  86 E3        30.01F
$$

WIZ029-030-035-036-043>047-021800-
CENTRAL WISCONSIN

CITY           SKY/WX    TMP DP  RH WIND       PRES   REMARKS
WAUSAU         PTSUNNY   81  70  69 NW6       29.98S HX  84
MOSINEE        PTSUNNY   81  72  74 W3        30.01S HX  84
MARSHFIELD     PTSUNNY   81  68  64 S5        29.99F HX  84
STEVENS POINT  MOSUNNY   81  68  64 S7        29.99F HX  84
WAUPACA        MOSUNNY   88  70  54 SW10      29.98F HX  92
WAUTOMA        SUNNY     86  69  56 SW9       29.99F HX  90
WISC RAPIDS    MOSUNNY   85  68  56 S8        29.99F HX  88
CAMP DOUGLAS   PTSUNNY   81  75  83 S7        29.97F HX  86
$$

WIZ011>013-019>022-031-037>040-048>050-021800-
NORTHEAST WISCONSIN

CITY           SKY/WX    TMP DP  RH WIND       PRES   REMARKS
ANTIGO         CLOUDY    73  66  79 NE5       30.02S
SHAWANO        CLOUDY    85  72  65 W6        29.98S HX  91
OCONTO         PTSUNNY   86  76  71 W5        29.94F HX  95
STURGEON BAY   MOSUNNY   82  73  74 W7        29.99F HX  88
GREEN BAY      PTSUNNY   86  72  62 W3        29.97F HX  92
MANITOWOC      SUNNY     87  71  58 MISG      29.98F HX  93
APPLETON       MOSUNNY   84  70  61 S7        29.98F HX  88
CLINTONVILLE   PTSUNNY   82  70  65 W3        29.98S HX  86
OSHKOSH        MOSUNNY   84  70  62 SW5       29.99S HX  88
$$

WIZ032>034-041-042-053>061-021800-
SOUTHWEST WISCONSIN

CITY           SKY/WX    TMP DP  RH WIND       PRES   REMARKS
LA CROSSE      MOSUNNY   83  67  58 S10       29.95F HX  85
SPARTA         CLOUDY    82  66  59 S5        29.98S HX  84
VIROQUA          N/A     79  69  70 SW7       30.01F HX  82
BOSCOBEL       CLOUDY    81  69  67 SW8       29.99S HX  84
PRAIRIE DU CHI CLOUDY    80  67  64 S7        29.98F HX  82
PLATTEVILLE    CLOUDY    79  72  77 SW10      30.01F HX  83
$$

WIZ056-057-062-063-064-067-068-021800-
SOUTH CENTRAL WISCONSIN

CITY           SKY/WX    TMP DP  RH WIND       PRES   REMARKS
REEDSBURG      MOSUNNY   83  70  65 SW12      29.99S HX  87
BARABOO/DELLS  MOSUNNY   85  65  50 SW13G21   30.00S HX  87
LONE ROCK      PTSUNNY   83  68  60 SW13      29.99F HX  86
MINERAL POINT  PTSUNNY   81  70  69 S10       30.01F HX  84
MADISON        PTSUNNY   84  68  58 SW7       30.00S HX  87
MIDDLETON      MOSUNNY   87  65  49 SW14G20   30.01F HX  88
WATERTOWN      SUNNY     84  73  68 S10       30.00F HX  90
MONROE         MOSUNNY   82  68  61 SW17      30.03S HX  85
JANESVILLE     MOSUNNY   86  70  58 SW14      30.01F HX  90
$$

WIZ051-052-058>065-066-070>072-021800-
SOUTHEAST WISCONSIN

CITY           SKY/WX    TMP DP  RH WIND       PRES   REMARKS
MILWAUKEE      PTSUNNY   87  69  54 SW9       30.00F HX  91
WAUKESHA       SUNNY     82  70  65 SW6       30.02  HX  86
MILWAUKEE/TIMM SUNNY     84  64  51 SW8       30.01F HX  86
RACINE         SUNNY     87  70  56 SW8       30.02F HX  92
BURLINGTON     SUNNY     83  67  58 W7        30.02F HX  86
KENOSHA        SUNNY     86  70  58 SW9       30.02F HX  90
FOND DU LAC    MOSUNNY   84  71  65 SW9       30.00S HX  89
SHEBOYGAN      SUNNY     86  70  58 W8        29.99F HX  90
WEST BEND      SUNNY     84  66  54 SW7       30.00F HX  86
JUNEAU         SUNNY     82  71  68 SW10      30.02S HX  86
$$

LSZ147-162-021800-
LAKE SUPERIOR

STATION/POSITION TIME  TEMP    WIND        PRES    WAVE
                       AIR SEA DIR/SP/G            HT/PER
                 (UTC) (F)     (DEG/KT/KT) (MB)    (FT/S)
W MID LAKE BUOY  1650   60 55   CALM  /  2 1016.6F   0
DEVILS ISLAND    1700   64      40/  8/  9 1015.4F
PORT WING        1640   65      50/ 12/ 14 1015.6F
SAXON HARBOR     1600   65        CALM     1016.6R
$$

LMZ867-665-643>646-021800-
LAKE MICHIGAN

STATION/POSITION TIME  TEMP    WIND        PRES    WAVE
                       AIR SEA DIR/SP/G            HT/PER
                 (UTC) (F)     (DEG/KT/KT) (MB)    (FT/S)
CHAMBERS ISLAND  1600   73     350/  4/  4 1014.9S
N MID LAKE BUOY  1650   66 67  310/  2/  2 1014.9F   1
NORTHPORT PIER   1600   66     150/  3/  6 1014.9S
SISTER BAY       1619   74      10/  8/  9   N/A
ALGOMA LAKESHORE 1614             CALM       N/A
KEWAUNEE LAKESHO 1600   62     160/  4/  5 1014.4S
SHEBOYGAN LAKESH 1700   76     170/ 12/ 14 1015.2F
PORT WASHINGTON  1600   68     190/  6/  8 1016.3F
ATWATER BUOY     1700   62     150/  4/  6 1017.3F
MILWAUKEE LAKESH 1610   67     140/  3/  4   N/A
S MID LAKE BUOY  1650   72 71  210/ 10/ 12 1016.0F   1
KENOSHA   LAKESH 1700   71     170/ 14/ 17 1015.6F
$$

TC  - TEMPERATURE IN CELSIUS
VSB - VISIBILITY IN STATUTE MILES
WCI - WIND CHILL INDEX
HX  - HEAT INDEX



USA.gov is the U.S. government's official web portal to all federal, state and local government web resources and services.